| time (UTC) | temp F | wind direction | speed MPH | gust MPH | rain 1hr in | rain 24hr in | rain mn in | humidity % | barometer mb |
| 20260906231534 | 61 | 44 | 0.0 | 0.0 | 0.00 | 0.00 | 0.01 | 33 | 1016.9 |
| 20260906230029 | 63 | 44 | 0.0 | 0.0 | 0.00 | 0.00 | 0.01 | 47 | 1017.0 |
| 20260906224524 | 64 | 44 | 0.0 | 0.0 | 0.00 | 0.00 | 0.01 | 52 | 1016.8 |
| 20260906223020 | 66 | 44 | 0.0 | 0.0 | 0.00 | 0.00 | 0.01 | 55 | 1016.9 |
| 20260906221515 | 66 | 44 | 0.0 | 0.0 | 0.00 | 0.00 | 0.01 | 55 | 1016.9 |
| 20260906220010 | 66 | 44 | 1.0 | 0.0 | 0.00 | 0.00 | 0.01 | 55 | 1016.8 |
| 20260906214505 | 67 | 42 | 2.0 | 0.0 | 0.00 | 0.00 | 0.01 | 53 | 1016.6 |
| 20260906213001 | 67 | 39 | 0.0 | 0.0 | 0.00 | 0.00 | 0.01 | 52 | 1016.6 |
| 20260906210100 | 66 | 58 | 0.0 | 0.0 | 0.00 | 0.00 | 0.01 | 53 | 1016.5 |
| 20260906204609 | 65 | 58 | 1.0 | 0.0 | 0.00 | 0.00 | 0.01 | 55 | 1016.6 |
| 20260906203047 | 66 | 62 | 0.0 | 0.0 | 0.00 | 0.00 | 0.01 | 54 | 1016.4 |
| 20260906200039 | 67 | 63 | 1.0 | 0.0 | 0.00 | 0.00 | 0.01 | 53 | 1016.3 |
| 20260906194534 | 67 | 82 | 2.0 | 0.0 | 0.00 | 0.00 | 0.01 | 54 | 1016.4 |
| 20260906193030 | 66 | 306 | 3.0 | 0.0 | 0.00 | 0.00 | 0.01 | 53 | 1016.4 |
| 20260906190022 | 65 | 34 | 5.0 | 0.0 | 0.00 | 0.00 | 0.01 | 54 | 1016.5 |
| 20260906184521 | 66 | 34 | 1.0 | 0.0 | 0.00 | 0.00 | 0.01 | 53 | 1016.5 |
| 20260906183013 | 66 | 33 | 2.0 | 0.0 | 0.00 | 0.00 | 0.01 | 53 | 1016.6 |
| 20260906180009 | 65 | 13 | 3.0 | 0.0 | 0.00 | 0.00 | 0.01 | 53 | 1016.7 |
| 20260906174502 | 65 | 36 | 4.0 | 0.0 | 0.00 | 0.00 | 0.01 | 53 | 1016.8 |
| 20260906173058 | 65 | 34 | 3.0 | 0.0 | 0.00 | 0.00 | 0.01 | 52 | 1016.8 |
| 20260906170054 | 65 | 13 | 3.0 | 0.0 | 0.00 | 0.00 | 0.01 | 50 | 1016.7 |
| 20260906164550 | 65 | 16 | 2.0 | 0.0 | 0.00 | 0.00 | 0.01 | 47 | 1017.0 |
| 20260906163043 | 64 | 91 | 2.0 | 0.0 | 0.00 | 0.00 | 0.01 | 45 | 1016.9 |
| 20260906160037 | 64 | 31 | 4.0 | 0.0 | 0.00 | 0.00 | 0.01 | 47 | 1016.9 |
| 20260906154542 | 64 | 26 | 5.0 | 0.0 | 0.00 | 0.00 | 0.01 | 49 | 1017.0 |
| 20260906153032 | 64 | 10 | 3.0 | 0.0 | 0.00 | 0.00 | 0.01 | 46 | 1017.0 |
| 20260906150020 | 63 | 32 | 3.0 | 0.0 | 0.00 | 0.00 | 0.01 | 41 | 1016.7 |
| 20260906144518 | 63 | 12 | 1.0 | 0.0 | 0.00 | 0.00 | 0.01 | 29 | 1016.8 |
| 20260906143011 | 62 | 19 | 4.0 | 0.0 | 0.00 | 0.00 | 0.01 | 26 | 1016.7 |
| 20260906140007 | 60 | 43 | 1.0 | 0.0 | 0.00 | 0.00 | 0.01 | 100 | 1016.7 |
| 20260906134501 | 60 | 42 | 2.0 | 0.0 | 0.00 | 0.00 | 0.01 | 100 | 1016.6 |
| 20260906133103 | 59 | 39 | 2.0 | 0.0 | 0.00 | 0.00 | 0.01 | 100 | 1016.5 |
| 20260906130055 | 59 | 34 | 2.0 | 0.0 | 0.00 | 0.00 | 0.01 | 100 | 1016.4 |
| 20260906124544 | 59 | 34 | 2.0 | 0.0 | 0.00 | 0.00 | 0.01 | 100 | 1016.4 |
| 20260906123044 | 59 | 20 | 2.0 | 0.0 | 0.00 | 0.00 | 0.01 | 100 | 1016.3 |
| 20260906120032 | 58 | 19 | 0.0 | 0.0 | 0.00 | 0.00 | 0.01 | 100 | 1016.1 |
| 20260906114531 | 0 | 0.0 | 0.0 | 0.00 | 0.00 | 0.01 | 1016.1 | ||
| 20260906113024 | 0 | 0.0 | 0.0 | 0.00 | 0.00 | 0.01 | 1015.9 | ||
| 20260906110017 | 0 | 0.0 | 0.0 | 0.00 | 0.00 | 0.01 | 1015.4 | ||
| 20260906104531 | 57 | 22 | 0.0 | 0.0 | 0.00 | 0.00 | 0.01 | 100 | 1015.3 |
| 20260906103026 | 57 | 22 | 0.0 | 0.0 | 0.00 | 0.00 | 0.01 | 100 | 1015.2 |
| 20260906100005 | 57 | 22 | 0.0 | 0.0 | 0.00 | 0.00 | 0.01 | 100 | 1015.1 |
| 20260906094602 | 57 | 22 | 0.0 | 0.0 | 0.00 | 0.00 | 0.01 | 100 | 1014.9 |
| 20260906093054 | 57 | 22 | 0.0 | 0.0 | 0.00 | 0.00 | 0.01 | 100 | 1014.7 |
| 20260906091649 | 57 | 22 | 0.0 | 0.0 | 0.00 | 0.00 | 0.01 | 100 | 1014.5 |
| 20260906090047 | 57 | 22 | 0.0 | 0.0 | 0.00 | 0.00 | 0.01 | 100 | 1014.4 |
| 20260906084543 | 57 | 22 | 0.0 | 0.0 | 0.00 | 0.00 | 0.01 | 100 | 1014.4 |
| 20260906083039 | 57 | 22 | 0.0 | 0.0 | 0.00 | 0.00 | 0.01 | 100 | 1014.2 |
| 20260906081635 | 57 | 22 | 0.0 | 0.0 | 0.00 | 0.00 | 0.01 | 100 | 1014.0 |
| 20260906080031 | 57 | 22 | 0.0 | 0.0 | 0.00 | 0.00 | 0.01 | 100 | 1013.9 |
| 20260906074528 | 57 | 22 | 0.0 | 0.0 | 0.00 | 0.00 | 0.01 | 100 | 1014.0 |
| 20260906073024 | 58 | 22 | 0.0 | 0.0 | 0.00 | 0.00 | 0.01 | 100 | 1014.0 |
| 20260906071618 | 58 | 22 | 0.0 | 0.0 | 0.00 | 0.00 | 0.01 | 100 | 1013.9 |
| 20260906070022 | 58 | 22 | 0.0 | 0.0 | 0.00 | 0.00 | 0.01 | 100 | 1014.1 |
| 20260906064512 | 58 | 22 | 0.0 | 0.0 | 0.00 | 0.00 | 0.01 | 100 | 1014.1 |
| 20260906063006 | 59 | 22 | 0.0 | 0.0 | 0.00 | 0.00 | 0.01 | 100 | 1014.1 |
| 20260906061602 | 59 | 22 | 0.0 | 0.0 | 0.00 | 0.00 | 0.00 | 100 | 1014.0 |
| 20260906060100 | 59 | 22 | 0.0 | 0.0 | 0.00 | 0.00 | 0.00 | 100 | 1014.0 |
| 20260906054609 | 59 | 22 | 0.0 | 0.0 | 0.00 | 0.00 | 0.00 | 100 | 1014.4 |
| 20260906053051 | 59 | 22 | 0.0 | 0.0 | 0.00 | 0.00 | 0.00 | 100 | 1014.5 |
| 20260906051547 | 59 | 22 | 0.0 | 0.0 | 0.00 | 0.00 | 0.00 | 100 | 1014.7 |
| 20260906050044 | 59 | 22 | 0.0 | 0.0 | 0.00 | 0.00 | 0.00 | 100 | 1014.7 |
| 20260906044539 | 59 | 22 | 0.0 | 0.0 | 0.00 | 0.00 | 0.00 | 100 | 1014.7 |
| 20260906043035 | 60 | 22 | 0.0 | 0.0 | 0.00 | 0.00 | 0.00 | 100 | 1014.5 |
| 20260906041531 | 59 | 22 | 0.0 | 0.0 | 0.00 | 0.00 | 0.00 | 100 | 1014.5 |
| 20260906040040 | 59 | 22 | 0.0 | 0.0 | 0.00 | 0.00 | 0.00 | 100 | 1014.5 |
| 20260906034524 | 59 | 22 | 0.0 | 0.0 | 0.00 | 0.00 | 0.01 | 100 | 1014.4 |
| 20260906033020 | 59 | 22 | 0.0 | 0.0 | 0.00 | 0.00 | 0.01 | 100 | 1014.5 |
| 20260906031552 | 59 | 22 | 0.0 | 0.0 | 0.00 | 0.00 | 0.01 | 100 | 1014.3 |
| 20260906030014 | 59 | 22 | 0.0 | 0.0 | 0.00 | 0.00 | 0.01 | 100 | 1014.4 |
| 20260906024532 | 59 | 22 | 0.0 | 0.0 | 0.00 | 0.00 | 0.01 | 100 | 1014.2 |
| 20260906023004 | 60 | 22 | 0.0 | 0.0 | 0.00 | 0.00 | 0.01 | 100 | 1014.1 |
| 20260906021501 | 60 | 22 | 0.0 | 0.0 | 0.00 | 0.00 | 0.01 | 100 | 1014.1 |
| 20260906020055 | 60 | 22 | 0.0 | 0.0 | 0.00 | 0.00 | 0.01 | 100 | 1014.0 |
| 20260906014554 | 61 | 22 | 0.0 | 0.0 | 0.00 | 0.00 | 0.01 | 100 | 1014.0 |
| 20260906013050 | 61 | 22 | 0.0 | 0.0 | 0.00 | 0.00 | 0.01 | 100 | 1014.0 |
| 20260906011543 | 61 | 22 | 0.0 | 0.0 | 0.00 | 0.00 | 0.01 | 100 | 1013.9 |
| 20260906010048 | 61 | 22 | 0.0 | 0.0 | 0.00 | 0.00 | 0.01 | 100 | 1013.9 |
| 20260906004538 | 61 | 22 | 0.0 | 0.0 | 0.00 | 0.00 | 0.01 | 100 | 1013.8 |
| 20260906003032 | 61 | 22 | 1.0 | 0.0 | 0.00 | 0.00 | 0.01 | 100 | 1013.7 |
| 20260906001534 | 61 | 54 | 0.0 | 0.0 | 0.00 | 0.00 | 0.00 | 100 | 1013.7 |
| 20260906000026 | 62 | 63 | 0.0 | 0.0 | 0.00 | 0.00 | 0.00 | 100 | 1013.5 |
| 20260905234521 | 62 | 63 | 0.0 | 0.0 | 0.00 | 0.00 | 0.00 | 100 | 1013.4 |
| 20260905233017 | 62 | 63 | 0.0 | 0.0 | 0.00 | 0.00 | 0.00 | 100 | 1013.5 |